Weather History for Coldwater, MI

Change the Weather History Date:

Sunday, June 2, 2013

  Actual Average (KJYM) Record (KJYM)
Temperature  
Mean Temperature 60 °F -  
Max Temperature 67 °F 75 °F 91 °F (1988)
Min Temperature 52 °F 50 °F 35 °F (1956)
Degree Days  
Heating Degree Days 6    
Growing Degree Days 10 (Base 50)    
Moisture  
Dew Point 53 °F    
Average Humidity 76    
Maximum Humidity 87    
Minimum Humidity 64    
Precipitation  
Precipitation 0.00 in - - ()
Sea Level Pressure  
Sea Level Pressure 29.85 in    
Wind  
Wind Speed 11 mph (West)    
Max Wind Speed 20 mph    
Max Gust Speed 23 mph    
Visibility 10 miles    
Events      
Averages and records for this station are not official NWS values.
T = Trace of Precipitation, MM = Missing Value Source: NWS Daily Summary

Daily Weather History Graph

Daily Weather History Graph

Search for Another Location

Airport:

Trip Planner

Search our weather history database for the weather conditions in past years. The results will help you decide how hot, cold, wet, or windy it might be!

Date:

Astronomy

Jun. 02, 2013 Rise Set
Actual Time 6:06 AM EDT 9:10 PM EDT
Civil Twilight 5:33 AM EDT 9:43 PM EDT
Nautical Twilight 4:50 AM EDT 10:26 PM EDT
Astronomical Twilight 3:59 AM EDT 11:17 PM EDT
Moon 2:38 AM EDT (6/2) 3:35 PM EDT (6/2)
Length of Visible Light 16h 10m
Length of Day
15h 03m
Waning Crescent, 31% of the Moon is Illuminated
Jun 2
Waning Crescent
Jun 8
New
Jun 16
First Quarter
Jun 23
Full
Jun 30
Last Quarter

Hourly Weather History & Observations

Time (EDT) Temp. Dew Point Humidity Pressure Visibility Wind Dir Wind Speed Gust Speed Precip Events Conditions
12:14 AM 66.7 °F 61.7 °F 84% 29.71 in 10.0 mi SSW 9.2 mph - N/A   Overcast
12:35 AM 66.2 °F 61.7 °F 85% 29.71 in 10.0 mi SW 8.1 mph - N/A   Mostly Cloudy
12:55 AM 66.9 °F 61.9 °F 84% 29.71 in 10.0 mi SW 8.1 mph - N/A   Overcast
1:14 AM 67.1 °F 61.7 °F 83% 29.70 in 10.0 mi SW 6.9 mph - N/A   Overcast
1:35 AM 67.1 °F 61.7 °F 83% 29.70 in 10.0 mi WSW 11.5 mph 16.1 mph N/A   Overcast
1:54 AM 66.4 °F 61.3 °F 84% 29.70 in 10.0 mi WSW 8.1 mph - N/A   Overcast
2:15 AM 66.2 °F 60.8 °F 83% 29.70 in 10.0 mi WSW 12.7 mph 16.1 mph N/A   Mostly Cloudy
2:35 AM 65.5 °F 58.8 °F 79% 29.71 in 10.0 mi WSW 9.2 mph - N/A   Mostly Cloudy
2:54 AM 64.2 °F 56.7 °F 76% 29.70 in 10.0 mi WSW 11.5 mph - N/A   Scattered Clouds
3:15 AM 64.2 °F 56.8 °F 77% 29.71 in 10.0 mi WSW 8.1 mph - N/A   Mostly Cloudy
3:35 AM 64.4 °F 58.1 °F 80% 29.71 in 10.0 mi SW 10.4 mph 18.4 mph N/A   Overcast
3:54 AM 63.1 °F 57.4 °F 81% 29.72 in 10.0 mi WSW 11.5 mph 16.1 mph N/A   Overcast
4:15 AM 62.2 °F 57.6 °F 85% 29.72 in 10.0 mi SW 10.4 mph - N/A   Overcast
4:35 AM 61.9 °F 57.6 °F 86% 29.72 in 10.0 mi WSW 9.2 mph - N/A   Overcast
4:55 AM 61.3 °F 57.4 °F 87% 29.72 in 10.0 mi WSW 8.1 mph 16.1 mph N/A   Overcast
5:15 AM 61.9 °F 57.6 °F 86% 29.73 in 10.0 mi WSW 10.4 mph - N/A   Overcast
5:35 AM 61.9 °F 57.2 °F 85% 29.73 in 10.0 mi WSW 12.7 mph 17.3 mph N/A   Overcast
5:55 AM 61.7 °F 57.2 °F 85% 29.73 in 10.0 mi WSW 12.7 mph 19.6 mph N/A   Overcast
6:15 AM 61.7 °F 57.2 °F 85% 29.74 in 10.0 mi WSW 11.5 mph 18.4 mph N/A   Overcast
6:35 AM 61.3 °F 57.2 °F 86% 29.76 in 10.0 mi WSW 10.4 mph - N/A   Overcast
6:55 AM 61.7 °F 57.2 °F 85% 29.76 in 10.0 mi WSW 12.7 mph 18.4 mph N/A   Overcast
7:15 AM 61.7 °F 57.2 °F 85% 29.77 in 10.0 mi West 13.8 mph 20.7 mph N/A   Overcast
7:35 AM 61.9 °F 57.2 °F 85% 29.78 in 10.0 mi West 13.8 mph 21.9 mph N/A   Overcast
7:55 AM 61.9 °F 57.4 °F 85% 29.79 in 10.0 mi West 12.7 mph 18.4 mph N/A   Overcast
8:15 AM 62.6 °F 57.6 °F 84% 29.79 in 10.0 mi West 13.8 mph 18.4 mph N/A   Overcast
8:35 AM 63.3 °F 57.6 °F 81% 29.79 in 10.0 mi WSW 12.7 mph 18.4 mph N/A   Overcast
8:55 AM 62.8 °F 57.6 °F 83% 29.79 in 10.0 mi West 13.8 mph 17.3 mph N/A   Overcast
9:15 AM 63.3 °F 56.7 °F 79% 29.80 in 10.0 mi West 12.7 mph 19.6 mph N/A   Overcast
9:35 AM 64.6 °F 57.4 °F 77% 29.80 in 10.0 mi West 12.7 mph 19.6 mph N/A   Overcast
9:55 AM 64.6 °F 57.4 °F 77% 29.81 in 10.0 mi West 16.1 mph 19.6 mph N/A   Overcast
10:15 AM 64.0 °F 56.7 °F 77% 29.81 in 10.0 mi WNW 19.6 mph 23.0 mph N/A   Overcast
10:35 AM 61.9 °F 55.2 °F 79% 29.83 in 10.0 mi WNW 13.8 mph 23.0 mph N/A   Overcast
10:55 AM 59.9 °F 54.3 °F 82% 29.84 in 10.0 mi West 11.5 mph 20.7 mph N/A   Overcast
11:14 AM 60.1 °F 53.6 °F 79% 29.84 in 10.0 mi West 15.0 mph 21.9 mph N/A   Overcast
11:35 AM 58.8 °F 52.7 °F 80% 29.86 in 10.0 mi West 11.5 mph 17.3 mph N/A   Overcast
11:55 AM 59.4 °F 53.2 °F 80% 29.87 in 10.0 mi West 9.2 mph - N/A   Overcast
12:14 PM 59.4 °F 52.5 °F 78% 29.88 in 10.0 mi West 12.7 mph - N/A   Overcast
12:35 PM 62.4 °F 53.2 °F 72% 29.88 in 10.0 mi West 13.8 mph 19.6 mph N/A   Mostly Cloudy
12:55 PM 62.4 °F 53.2 °F 72% 29.88 in 10.0 mi West 12.7 mph 19.6 mph N/A   Mostly Cloudy
1:15 PM 63.5 °F 53.4 °F 70% 29.89 in 10.0 mi WNW 15.0 mph 19.6 mph N/A   Overcast
1:35 PM 62.8 °F 53.2 °F 71% 29.90 in 10.0 mi WNW 10.4 mph 20.7 mph N/A   Overcast
1:55 PM 62.8 °F 53.1 °F 71% 29.90 in 10.0 mi WNW 10.4 mph - N/A   Overcast
2:15 PM 63.7 °F 53.2 °F 69% 29.90 in 10.0 mi WNW 12.7 mph 17.3 mph N/A   Overcast
2:35 PM 64.9 °F 53.4 °F 66% 29.91 in 10.0 mi West 8.1 mph 18.4 mph N/A   Overcast
2:55 PM 64.2 °F 53.6 °F 68% 29.91 in 10.0 mi WNW 11.5 mph 18.4 mph N/A   Overcast
3:15 PM 63.3 °F 52.2 °F 67% 29.91 in 10.0 mi WNW 12.7 mph 18.4 mph N/A   Overcast
3:35 PM 61.7 °F 51.3 °F 69% 29.92 in 10.0 mi WNW 10.4 mph - N/A   Overcast
3:55 PM 62.4 °F 52.2 °F 69% 29.93 in 10.0 mi West 11.5 mph 19.6 mph N/A   Overcast
4:15 PM 60.8 °F 50.2 °F 68% 29.93 in 10.0 mi NW 10.4 mph 16.1 mph N/A   Overcast
4:35 PM 60.8 °F 50.0 °F 68% 29.93 in 10.0 mi NW 12.7 mph 18.4 mph N/A   Overcast
4:55 PM 60.3 °F 49.6 °F 68% 29.93 in 10.0 mi WNW 13.8 mph 20.7 mph N/A   Overcast
5:15 PM 59.9 °F 49.3 °F 68% 29.93 in 10.0 mi WNW 12.7 mph - N/A   Overcast
5:35 PM 60.8 °F 49.5 °F 66% 29.93 in 10.0 mi WNW 11.5 mph 17.3 mph N/A   Overcast
5:55 PM 59.5 °F 48.4 °F 67% 29.93 in 10.0 mi NW 11.5 mph 17.3 mph N/A   Overcast
6:15 PM 58.6 °F 48.4 °F 69% 29.93 in 10.0 mi WNW 10.4 mph 16.1 mph N/A   Overcast
6:35 PM 58.3 °F 48.0 °F 69% 29.94 in 10.0 mi NW 11.5 mph - N/A   Overcast
6:55 PM 59.2 °F 48.0 °F 66% 29.94 in 10.0 mi NW 11.5 mph - N/A   Overcast
7:15 PM 58.6 °F 47.3 °F 66% 29.94 in 10.0 mi WNW 11.5 mph 19.6 mph N/A   Scattered Clouds
7:34 PM 58.6 °F 46.9 °F 65% 29.94 in 10.0 mi NW 9.2 mph - N/A   Mostly Cloudy
7:55 PM 58.3 °F 46.0 °F 64% 29.95 in 10.0 mi WNW 11.5 mph - N/A   Mostly Cloudy
8:15 PM 57.2 °F 45.9 °F 66% 29.96 in 10.0 mi WNW 9.2 mph - N/A   Mostly Cloudy
8:34 PM 55.8 °F 45.0 °F 67% 29.96 in 10.0 mi WNW 8.1 mph - N/A   Overcast
8:55 PM 54.3 °F 44.6 °F 70% 29.96 in 10.0 mi WNW 6.9 mph - N/A   Overcast
9:15 PM 52.9 °F 43.9 °F 71% 29.96 in 10.0 mi WNW 9.2 mph - N/A   Overcast
9:34 PM 53.2 °F 44.1 °F 71% 29.96 in 10.0 mi WNW 5.8 mph - N/A   Overcast
9:55 PM 53.1 °F 44.4 °F 72% 29.96 in 10.0 mi WNW 5.8 mph - N/A   Overcast
10:15 PM 53.2 °F 45.0 °F 73% 29.97 in 10.0 mi North 8.1 mph - N/A   Overcast
10:34 PM 53.6 °F 44.4 °F 71% 29.97 in 10.0 mi North 9.2 mph - N/A   Overcast
10:55 PM 53.6 °F 44.1 °F 70% 29.98 in 10.0 mi North 6.9 mph - N/A   Overcast
11:15 PM 53.6 °F 44.4 °F 71% 29.99 in 10.0 mi North 6.9 mph - N/A   Overcast
11:35 PM 53.2 °F 44.6 °F 72% 30.00 in 10.0 mi NNW 5.8 mph - N/A   Overcast
11:55 PM 52.7 °F 45.1 °F 75% 30.00 in 10.0 mi North 5.8 mph - N/A   Overcast